EW1736 Weather Reports


time (UTC)temp
C
wind
direction
speed
KPH
gust
KPH
rain 1hr
cm
rain 24hr
cm
rain mn
cm
humidity
%
barometer
mb
20260509042521 18 331 4.8 12.9 0.00 0.58 0.53 85 1003.5
20260509042416 18 299 6.4 12.9 0.00 0.58 0.53 83 1003.6
20260509035518 18 285 4.8 24.1 0.00 0.58 0.53 83 1003.8
20260509034013 18 270 6.4 16.1 0.00 0.58 0.53 82 1003.8
20260509032513 18 261 12.9 25.7 0.00 0.58 0.53 80 1003.8
20260509031009 20 264 17.7 25.7 0.00 0.58 0.53 78 1003.8
20260509025509 20 273 4.8 16.1 0.00 0.58 0.53 80 1003.8
20260509024701 19 294 9.7 17.7 0.00 0.58 0.53 79 1003.8
20260509022504 19 292 12.9 24.1 0.00 0.58 0.53 81 1004.1
20260509021001 18 297 19.3 29.0 0.00 0.58 0.53 83 1004.3
20260509015457 19 254 14.5 24.1 0.03 0.58 0.53 82 1004.4
20260509013957 19 269 17.7 22.5 0.03 0.58 0.53 82 1004.3
20260509012454 18 253 9.7 22.5 0.03 0.58 0.53 85 1004.3
20260509010952 18 247 11.3 22.5 0.03 0.61 0.53 86 1004.7
20260509005449 17 266 20.9 38.6 0.00 0.66 0.51 84 1004.7
20260509003945 19 250 22.5 27.4 0.00 0.66 0.51 80 1005.0
20260509002440 20 284 14.5 29.0 0.00 0.66 0.51 77 1005.2
20260509000936 20 244 19.3 25.7 0.00 0.66 0.51 77 1005.4
20260508235438 20 277 14.5 24.1 0.00 0.66 0.51 78 1005.6
20260508233932 20 286 14.5 24.1 0.00 0.66 0.51 79 1005.8
20260508232433 19 251 14.5 27.4 0.00 0.69 0.51 81 1005.9
20260508230928 18 266 20.9 29.0 0.00 0.69 0.51 81 1006.2
20260508225424 18 266 12.9 25.7 0.00 0.69 0.51 84 1006.4
20260508223926 18 313 11.3 24.1 0.00 0.69 0.51 85 1006.6
20260508222420 18 268 8.0 16.1 0.00 0.71 0.51 85 1006.8
20260508220921 18 288 12.9 22.5 0.00 0.71 0.51 85 1006.9
20260508215416 18 293 11.3 22.5 0.00 0.71 0.51 86 1007.0
20260508213917 18 290 6.4 14.5 0.00 0.71 0.51 88 1007.1
20260508212414 17 294 6.4 12.9 0.00 0.71 0.51 90 1007.0
20260508210908 17 300 4.8 14.5 0.00 0.71 0.51 90 1007.1
20260508210056 16 275 8.0 14.5 0.00 0.71 0.51 91 1007.0
20260508203858 16 311 4.8 12.9 0.00 0.71 0.51 92 1007.0
20260508202400 16 336 4.8 9.7 0.00 0.71 0.51 92 1006.9
20260508200855 16 342 4.8 11.3 0.00 0.71 0.51 93 1007.0
20260508195351 16 29 3.2 9.7 0.00 0.71 0.51 94 1006.9
20260508193847 15 288 0.0 3.2 0.00 0.71 0.51 93 1006.7
20260508193748 15 282 3.2 6.4 0.00 0.71 0.51 93 1006.4
20260508190839 16 289 6.4 11.3 0.00 0.71 0.51 93 1006.4
20260508185333 16 317 6.4 12.9 0.00 0.71 0.51 94 1006.4
20260508183833 16 5 3.2 8.0 0.00 0.71 0.51 94 1006.5
20260508182329 16 24 3.2 6.4 0.00 0.71 0.51 94 1006.5
20260508181531 16 5 0.0 8.0 0.00 0.71 0.51 94 1006.5
20260508175325 16 114 0.0 9.7 0.00 0.71 0.51 94 1006.3
20260508174515 16 50 3.2 9.7 0.00 0.71 0.51 94 1006.4
20260508172318 16 19 3.2 20.9 0.00 0.71 0.51 94 1006.5
20260508170818 16 275 1.6 19.3 0.00 0.71 0.51 94 1006.3
20260508165313 16 269 11.3 17.7 0.00 0.71 0.51 95 1006.0
20260508163813 16 254 14.5 24.1 0.00 0.71 0.51 95 1006.0
20260508162309 15 239 9.7 14.5 0.00 0.71 0.51 95 1005.9
20260508160805 16 242 6.4 12.9 0.00 0.71 0.51 95 1006.0
20260508155301 15 240 3.2 16.1 0.00 0.71 0.51 95 1006.3
20260508153756 15 204 9.7 19.3 0.08 0.71 0.51 95 1006.4
20260508152257 15 253 6.4 20.9 0.13 0.71 0.51 96 1006.3
20260508150752 15 251 16.1 30.6 0.13 0.71 0.51 96 1006.7
20260508145248 15 279 20.9 33.8 0.33 0.71 0.51 96 1006.9
20260508143748 16 273 27.4 35.4 0.30 0.64 0.43 96 1007.1
20260508142244 16 284 14.5 24.1 0.30 0.61 0.41 97 1007.1
20260508140744 16 271 17.7 32.2 0.33 0.61 0.41 96 1007.3
20260508135239 18 305 33.8 46.7 0.15 0.38 0.20 97 1007.2
20260508134443 18 21 17.7 30.6 0.13 0.33 0.15 97 1006.8
20260508132231 18 21 17.7 33.8 0.10 0.33 0.10 97 1006.9
20260508130727 18 5 20.9 33.8 0.05 0.28 0.05 96 1007.2
20260508125222 18 22 19.3 37.0 0.05 0.25 0.05 96 1007.3
20260508123717 18 31 17.7 29.0 0.00 0.23 0.00 96 1007.2
20260508122218 18 76 14.5 33.8 0.00 0.23 0.00 96 1007.6
20260508120714 18 340 16.1 32.2 0.00 0.23 0.00 96 1007.9
20260508115210 18 340 22.5 35.4 0.00 0.23 0.23 95 1008.3
20260508113710 18 38 24.1 37.0 0.00 0.23 0.23 95 1008.5
20260508112206 18 342 19.3 33.8 0.00 0.23 0.23 95 1008.8
20260508110707 18 335 12.9 33.8 0.00 0.23 0.23 95 1008.8
20260508105202 18 355 12.9 30.6 0.00 0.23 0.23 95 1009.2
20260508104354 18 326 11.3 30.6 0.00 0.23 0.23 95 1009.4
20260508102159 18 335 19.3 33.8 0.03 0.23 0.23 96 1010.0
20260508100654 18 0 22.5 37.0 0.03 0.23 0.23 96 1010.1
20260508095150 18 340 17.7 33.8 0.03 0.23 0.23 96 1010.1
20260508093650 18 330 17.7 29.0 0.03 0.23 0.23 96 1009.9
20260508092146 18 49 27.4 41.8 0.00 0.23 0.23 95 1010.2
20260508091339 18 18 17.7 33.8 0.00 0.23 0.23 95 1010.4
20260508085143 18 342 16.1 27.4 0.00 0.23 0.23 95 1010.9
20260508083638 18 17 17.7 29.0 0.00 0.23 0.23 95 1011.0
20260508082134 18 336 17.7 29.0 0.00 0.23 0.23 95 1011.2
20260508080628 18 11 17.7 30.6 0.00 0.23 0.23 95 1011.1
20260508075129 18 331 17.7 35.4 0.00 0.23 0.23 95 1010.9
20260508074326 18 9 24.1 38.6 0.00 0.23 0.23 95 1010.8
20260508072125 18 51 20.9 37.0 0.00 0.23 0.23 95 1011.4
20260508071310 18 333 17.7 41.8 0.03 0.23 0.23 95 1011.6
20260508065117 17 341 17.7 35.4 0.03 0.23 0.23 95 1011.8
20260508063612 17 352 17.7 38.6 0.03 0.23 0.23 95 1011.7
20260508062109 17 0 24.1 33.8 0.03 0.23 0.23 95 1012.3
20260508060609 18 32 17.7 38.6 0.00 0.20 0.20 94 1012.5
20260508055105 18 32 11.3 30.6 0.00 0.20 0.20 92 1012.7
20260508053600 18 32 14.5 29.0 0.00 0.20 0.20 92 1012.8
20260508052055 18 326 17.7 30.6 0.00 0.20 0.20 92 1013.0
20260508050552 18 49 17.7 32.2 0.00 0.20 0.20 92 1013.3
20260508045051 18 33 22.5 35.4 0.00 0.20 0.20 92 1013.3